DW8199 Weather Reports


Display with metric or nautical units.
time (UTC)temp
F
wind
direction
speed
MPH
gust
MPH
rain 1hr
in
rain 24hr
in
rain mn
in
humidity
%
barometer
mb
20260503054516 39 0.0 0.0 0.00 0.00 0.00 86 1017.4
20260503053516 39 0.0 0.0 0.00 0.00 0.00 87 1017.4
20260503052516 38 0.0 0.0 0.00 0.00 0.00 86 1017.4
20260503051536 38 0.0 0.0 0.00 0.00 0.00 86 1017.4
20260503050517 38 0.0 0.0 0.00 0.00 0.00 86 1017.4
20260503045516 39 0.0 0.0 0.00 0.00 0.00 86 1017.5
20260503044516 39 0.0 0.0 0.00 0.00 0.00 86 1017.6
20260503043516 39 0.0 0.0 0.00 0.00 0.00 85 1017.7
20260503042516 39 0.0 0.0 0.00 0.00 0.00 85 1017.7
20260503041516 39 0.0 0.0 0.00 0.00 0.00 85 1017.7
20260503040516 39 0.0 0.0 0.00 0.00 0.00 85 1017.7
20260503035556 39 0.0 0.0 0.00 0.00 0.00 85 1017.8
20260503034516 39 0.0 0.0 0.00 0.00 0.00 85 1017.9
20260503033515 39 0.0 0.0 0.00 0.00 0.00 84 1017.9
20260503032515 39 0.0 0.0 0.00 0.00 0.00 84 1018.0
20260503031515 39 0.0 0.0 0.00 0.00 0.00 83 1017.9
20260503030515 39 0.0 0.0 0.00 0.00 0.00 83 1017.9
20260503025555 40 0.0 0.0 0.00 0.00 0.00 82 1017.9
20260503024515 40 0.0 0.0 0.00 0.00 0.00 82 1017.9
20260503023535 40 0.0 0.0 0.00 0.00 0.00 81 1018.0
20260503022515 41 0.0 0.0 0.00 0.00 0.00 80 1018.1
20260503021515 41 0.0 0.0 0.00 0.00 0.00 79 1018.0
20260503020515 41 0.0 0.0 0.00 0.00 0.00 78 1018.0
20260503015515 41 0.0 0.0 0.00 0.00 0.00 78 1017.9
20260503014535 41 0.0 0.0 0.00 0.00 0.00 77 1018.0
20260503013515 42 0.0 0.0 0.00 0.00 0.00 76 1017.9
20260503012515 42 0.0 1.0 0.00 0.00 0.00 75 1017.8
20260503011515 42 293 0.0 1.0 0.00 0.00 0.00 75 1017.9
20260503010515 42 293 0.0 1.0 0.00 0.00 0.00 74 1017.7
20260503005515 42 0.0 0.0 0.00 0.00 0.00 74 1017.7
20260503004536 42 0.0 1.0 0.00 0.00 0.00 73 1017.6
20260503003515 42 293 0.0 1.0 0.00 0.00 0.00 73 1017.5
20260503002515 42 293 0.0 1.0 0.00 0.00 0.00 72 1017.5
20260503001535 43 0.0 1.0 0.00 0.00 0.00 72 1017.4
20260503000515 43 293 0.0 2.0 0.00 0.00 0.00 72 1017.3
20260502235515 43 292 0.0 1.0 0.00 0.00 0.00 71 1017.2
20260502234515 43 293 0.0 2.0 0.00 0.00 0.00 70 1017.2
20260502233536 43 290 1.0 2.0 0.00 0.00 0.00 70 1017.1
20260502232515 43 285 1.0 4.0 0.00 0.00 0.00 69 1017.1
20260502231515 44 284 1.0 3.0 0.00 0.00 0.00 68 1017.1
20260502230515 44 286 1.0 4.0 0.00 0.00 0.00 68 1017.1
20260502225515 44 258 0.0 2.0 0.00 0.00 0.00 68 1017.0
20260502224515 44 267 1.0 3.0 0.00 0.00 0.00 67 1017.1
20260502223515 44 274 1.0 3.0 0.00 0.00 0.00 68 1017.0
20260502222515 44 284 2.0 4.0 0.00 0.00 0.00 67 1017.1
20260502221515 44 283 2.0 5.0 0.00 0.00 0.00 67 1017.1
20260502220516 44 275 2.0 5.0 0.00 0.00 0.00 68 1017.0
20260502215515 44 278 2.0 6.0 0.00 0.00 0.00 66 1017.0
20260502214515 44 279 2.0 7.0 0.00 0.00 0.00 65 1017.0
20260502213515 44 277 3.0 7.0 0.00 0.00 0.00 68 1016.9
20260502212515 44 280 2.0 6.0 0.00 0.00 0.00 69 1016.8
20260502211515 44 269 1.0 4.0 0.00 0.00 0.00 69 1016.7
20260502210515 44 274 1.0 4.0 0.00 0.01 0.00 70 1016.7
20260502205515 44 277 2.0 7.0 0.00 0.01 0.00 68 1016.6
20260502204515 45 282 2.0 4.0 0.00 0.01 0.00 66 1016.5
20260502203535 46 281 2.0 5.0 0.00 0.01 0.00 65 1016.5
20260502202555 46 282 1.0 6.0 0.00 0.07 0.00 64 1016.5
20260502201515 46 111 1.0 5.0 0.00 0.08 0.00 65 1016.6
20260502200515 45 270 2.0 5.0 0.00 0.08 0.00 67 1016.7
20260502195514 45 274 2.0 5.0 0.00 0.08 0.00 67 1016.7
20260502194515 46 254 1.0 7.0 0.00 0.08 0.00 68 1016.9
20260502193515 46 267 3.0 7.0 0.00 0.08 0.00 66 1016.8
20260502192515 46 239 1.0 6.0 0.00 0.08 0.00 69 1017.0
20260502191515 46 287 2.0 6.0 0.00 0.08 0.00 70 1017.1
20260502190518 45 174 1.0 6.0 0.00 0.08 0.00 73 1017.2
20260502185517 44 281 2.0 7.0 0.00 0.08 0.00 73 1017.3
20260502184517 44 247 2.0 7.0 0.00 0.09 0.00 74 1017.3
20260502183517 43 279 3.0 7.0 0.00 0.10 0.00 76 1017.3
20260502182517 43 270 2.0 7.0 0.00 0.11 0.00 78 1017.4
20260502181517 42 279 2.0 6.0 0.00 0.11 0.00 78 1017.4
20260502180517 43 281 3.0 8.0 0.00 0.11 0.00 76 1017.5
20260502170517 41 273 2.0 6.0 0.00 0.19 0.00 83 1017.2
20260502163518 44 280 4.0 9.0 0.00 0.25 0.00 76 1017.2
20260502162517 45 294 3.0 7.0 0.00 0.26 0.00 73 1016.9
20260502161517 45 285 3.0 7.0 0.00 0.27 0.00 71 1016.9
20260502160516 46 280 3.0 9.0 0.00 0.28 0.00 71 1016.9
20260502151517 46 272 3.0 8.0 0.00 0.29 0.00 67 1016.6
20260502150557 45 275 3.0 6.0 0.00 0.29 0.00 70 1016.5
20260502130516 41 293 1.0 5.0 0.00 0.29 0.00 88 1016.4
20260502123516 40 281 1.0 3.0 0.00 0.29 0.00 90 1016.5
20260502122516 40 293 1.0 4.0 0.00 0.29 0.00 91 1016.5
20260502121516 39 290 1.0 3.0 0.00 0.29 0.00 91 1016.6
20260502120537 38 304 0.0 2.0 0.00 0.29 0.00 91 1016.5
20260502115517 37 0.0 0.0 0.00 0.29 0.00 91 1016.5
20260502114516 37 0.0 0.0 0.00 0.29 0.00 91 1016.6
20260502113517 37 0.0 0.0 0.00 0.29 0.00 91 1016.4
20260502112517 37 0.0 0.0 0.00 0.29 0.00 91 1016.4
20260502111517 37 0.0 0.0 0.00 0.29 0.00 91 1016.4
20260502110536 37 0.0 0.0 0.00 0.29 0.00 91 1016.4
20260502105516 37 0.0 0.0 0.00 0.29 0.00 91 1016.3
20260502104536 37 0.0 0.0 0.00 0.29 0.00 91 1016.3
20260502103516 37 0.0 0.0 0.00 0.29 0.00 91 1016.3
20260502102516 38 0.0 0.0 0.00 0.29 0.00 91 1016.3
20260502101537 38 0.0 0.0 0.00 0.29 0.00 91 1016.3
20260502100536 38 0.0 0.0 0.00 0.29 0.00 91 1016.2
20260502091516 38 0.0 0.0 0.00 0.29 0.00 91 1016.1
20260502090516 38 0.0 0.0 0.00 0.29 0.00 91 1016.1
20260502071516 39 0.0 0.0 0.00 0.29 0.00 90 1016.2
20260502070556 39 0.0 0.0 0.00 0.29 0.00 90 1016.1
20260502065516 38 0.0 0.0 0.00 0.29 0.00 90 1016.2